GEFSSGP_prec_meanprecacc_270.txt.gz
Total_Precipitation_Accumulation
0.05 0.14 0.37 0.60 0.98 1.48 1.46 0.97 0.77 0.55 0.44 0.45 0.35 0.33 0.42 0.63 0.98 1.73 1.57 1.11 0.74 0.70 0.88 1.10 1.19 1.23 1.21 1.21 1.40 1.49 1.51 1.54 1.58 1.71 1.81 1.87 1.88 1.75 1.62 1.63 1.66 1.73 1.69 1.65 1.63 1.60 1.51 1.34 1.30
0.07 0.17 0.37 0.64 1.17 1.65 1.38 0.74 0.50 0.39 0.35 0.38 0.36 0.36 0.53 0.59 0.57 0.92 1.04 0.90 0.59 0.59 0.72 0.82 0.98 1.02 1.00 1.04 1.11 1.27 1.38 1.34 1.44 1.67 1.77 1.83 1.78 1.68 1.62 1.55 1.57 1.65 1.73 1.78 1.65 1.53 1.39 1.20 1.15
0.09 0.17 0.34 0.62 1.00 1.19 0.99 0.59 0.37 0.30 0.36 0.49 0.52 0.43 0.65 0.69 0.61 0.82 0.83 0.61 0.52 0.61 0.77 0.83 0.81 0.75 0.72 0.74 0.85 1.04 1.21 1.33 1.42 1.52 1.57 1.60 1.57 1.57 1.50 1.44 1.54 1.67 1.85 1.89 1.66 1.42 1.25 1.11 0.99
0.08 0.18 0.28 0.48 0.60 0.55 0.52 0.43 0.33 0.32 0.36 0.47 0.57 0.59 0.75 0.63 0.51 0.62 0.64 0.48 0.43 0.56 0.62 0.62 0.62 0.56 0.58 0.60 0.71 0.86 0.99 1.15 1.29 1.32 1.35 1.45 1.57 1.55 1.46 1.50 1.64 1.82 1.91 1.75 1.51 1.28 1.13 1.03 0.91
0.08 0.17 0.28 0.45 0.52 0.48 0.39 0.37 0.33 0.40 0.44 0.52 0.58 0.80 0.93 0.77 0.55 0.49 0.49 0.38 0.28 0.35 0.43 0.47 0.52 0.48 0.51 0.55 0.66 0.81 0.95 1.05 1.06 1.15 1.39 1.52 1.56 1.57 1.62 1.64 1.77 1.84 1.79 1.59 1.46 1.28 1.18 1.02 0.94
0.07 0.13 0.22 0.36 0.44 0.44 0.36 0.30 0.26 0.34 0.49 0.66 0.72 0.85 1.04 0.93 0.68 0.55 0.42 0.36 0.28 0.26 0.38 0.48 0.53 0.49 0.49 0.52 0.62 0.75 0.85 0.96 1.02 1.14 1.30 1.39 1.41 1.47 1.59 1.69 1.80 1.75 1.70 1.52 1.38 1.22 1.15 1.09 1.01
0.05 0.09 0.14 0.26 0.35 0.33 0.29 0.29 0.26 0.30 0.48 0.67 0.70 0.97 1.16 1.17 0.88 0.63 0.51 0.50 0.51 0.40 0.46 0.58 0.61 0.61 0.63 0.70 0.80 0.89 0.95 1.05 1.13 1.18 1.23 1.23 1.28 1.38 1.52 1.68 1.78 1.76 1.61 1.34 1.27 1.17 1.11 1.06 1.03
0.07 0.06 0.09 0.16 0.21 0.29 0.24 0.24 0.25 0.32 0.37 0.48 0.58 0.84 1.14 1.10 0.89 0.80 0.91 0.90 0.96 0.76 0.62 0.60 0.71 0.83 0.80 0.79 0.93 1.02 1.08 1.13 1.18 1.22 1.26 1.32 1.39 1.43 1.54 1.65 1.85 1.88 1.64 1.36 1.26 1.13 1.01 1.02 1.07
0.04 0.10 0.10 0.11 0.14 0.20 0.17 0.23 0.24 0.21 0.27 0.36 0.48 0.66 0.88 0.86 0.85 1.07 1.35 1.23 1.27 1.11 0.85 0.70 0.64 0.79 0.92 0.90 0.93 1.06 1.15 1.21 1.31 1.44 1.50 1.59 1.72 1.68 1.88 1.96 2.15 2.13 1.85 1.66 1.50 1.32 1.19 1.10 1.08
0.02 0.09 0.08 0.07 0.07 0.11 0.13 0.19 0.20 0.24 0.46 0.71 0.84 0.88 0.97 1.20 1.21 1.33 1.44 1.36 1.32 1.28 1.08 0.93 0.81 0.76 0.86 0.90 1.11 1.39 1.37 1.47 1.65 1.88 1.89 2.11 2.23 2.22 1.91 2.28 2.56 2.53 2.38 2.16 2.07 1.92 1.60 1.33 1.26
0.01 0.05 0.07 0.07 0.05 0.06 0.10 0.11 0.16 0.27 0.61 0.98 1.20 1.27 1.29 1.50 1.70 1.76 1.83 1.85 1.72 1.60 1.34 1.12 1.04 1.05 1.03 1.18 1.19 1.42 1.71 1.93 1.97 1.93 2.01 2.25 2.20 2.07 2.01 2.24 2.39 2.42 2.42 2.42 2.60 2.50 2.08 2.02 2.10
0.01 0.02 0.03 0.05 0.03 0.04 0.06 0.08 0.17 0.39 0.78 0.94 1.15 1.30 1.34 1.73 1.84 1.86 2.29 2.37 1.96 1.66 1.59 1.48 1.40 1.38 1.44 1.31 1.44 1.49 1.59 1.77 1.87 1.98 2.01 2.18 2.45 2.42 2.30 2.39 2.34 2.50 2.60 2.94 2.81 2.94 2.74 2.44 2.16
0.01 0.01 0.02 0.03 0.03 0.03 0.05 0.09 0.18 0.37 0.59 0.68 0.88 1.05 1.10 1.61 1.93 2.16 2.67 2.63 2.33 2.12 2.00 1.84 1.80 1.86 1.84 1.81 1.84 1.68 1.71 1.77 1.86 2.02 2.22 2.28 2.41 2.43 2.41 2.51 2.56 2.28 2.32 2.61 2.88 2.80 2.93 2.91 2.68
0.01 0.02 0.04 0.04 0.04 0.04 0.05 0.12 0.23 0.43 0.56 0.78 0.79 0.95 1.18 1.57 1.87 2.29 2.63 2.88 2.73 2.47 2.28 2.14 2.10 2.19 2.26 2.23 2.28 2.18 1.90 1.99 1.96 2.18 2.25 2.35 2.41 2.50 2.66 2.74 2.70 2.38 2.30 2.57 2.77 2.66 2.99 2.93 2.87
0.02 0.06 0.09 0.08 0.06 0.07 0.08 0.26 0.48 0.58 0.70 0.86 0.98 1.08 1.29 1.65 2.15 2.43 2.70 3.01 3.04 2.96 2.78 2.55 2.43 2.59 2.81 2.88 2.81 2.59 2.36 2.14 2.15 2.25 2.32 2.43 2.40 2.58 2.58 2.55 2.58 2.57 2.45 2.65 2.75 2.76 2.90 2.76 2.65
0.05 0.07 0.13 0.14 0.10 0.10 0.16 0.58 0.72 0.60 0.78 0.97 1.05 1.28 1.58 1.96 2.40 2.91 3.08 2.98 3.00 3.14 3.09 2.80 2.57 3.01 3.36 3.39 3.33 3.06 2.77 2.44 2.33 2.38 2.47 2.53 2.59 2.68 2.80 2.58 2.48 2.71 2.66 2.82 3.12 3.05 3.16 3.26 3.13
0.07 0.11 0.13 0.18 0.13 0.13 0.26 0.74 0.72 0.54 0.65 0.84 1.07 1.31 1.74 2.25 2.61 2.79 2.85 3.04 3.17 3.28 3.24 3.15 3.24 3.33 3.46 3.56 3.65 3.39 3.13 2.87 2.60 2.50 2.50 2.60 2.74 2.84 3.15 2.99 2.96 2.90 2.89 2.94 2.64 3.25 3.53 3.57 3.40
0.06 0.09 0.16 0.18 0.16 0.19 0.29 0.55 0.64 0.64 0.79 0.92 1.22 1.43 1.59 1.98 2.43 2.53 2.66 3.13 3.23 3.42 3.54 3.45 3.56 3.69 3.94 4.14 4.30 3.90 3.50 3.20 2.90 2.72 2.77 2.82 3.01 3.14 3.38 3.17 3.07 2.98 3.11 3.12 3.17 3.61 3.57 3.32 3.32
0.04 0.08 0.17 0.19 0.17 0.23 0.33 0.54 0.74 0.83 0.98 1.28 1.48 1.47 1.45 1.75 2.24 2.60 2.86 3.05 3.40 3.61 3.79 3.78 3.99 4.38 4.70 4.54 4.21 4.00 3.72 3.48 3.24 2.97 2.86 2.89 2.86 3.05 3.36 3.17 3.37 3.26 3.12 3.11 3.14 3.43 3.51 3.24 3.44
0.03 0.07 0.16 0.20 0.19 0.30 0.44 0.67 0.84 1.04 1.27 1.36 1.28 1.28 1.42 1.80 2.30 2.66 2.94 3.10 3.37 3.65 4.07 4.20 4.39 4.73 4.85 4.70 4.56 4.37 4.21 3.82 3.67 3.50 3.29 2.93 2.73 2.84 2.91 3.22 3.03 3.08 3.19 3.11 3.23 3.50 3.39 3.01 3.46
0.05 0.08 0.15 0.16 0.24 0.40 0.51 0.94 1.12 1.28 1.40 1.39 1.32 1.51 1.52 1.60 2.03 2.31 2.43 2.62 2.81 2.95 3.21 3.50 3.98 4.48 4.66 4.72 4.63 4.56 4.57 4.07 3.78 3.61 3.39 2.99 2.72 2.65 2.82 2.98 3.05 3.08 2.98 3.06 3.26 3.32 3.36 3.23 3.32
0.07 0.07 0.08 0.12 0.23 0.51 0.58 1.16 1.40 1.60 1.72 1.58 1.51 1.43 1.39 1.63 1.98 1.99 1.83 1.98 2.24 2.24 2.56 2.98 3.42 3.77 3.99 4.08 4.07 4.08 4.03 3.90 3.80 3.64 3.23 2.95 2.70 2.61 2.70 2.83 2.90 2.94 2.79 2.91 2.75 2.89 3.34 3.45 3.21
0.05 0.06 0.09 0.14 0.25 0.47 0.51 0.87 1.41 1.80 1.98 1.60 1.49 1.36 1.41 1.64 1.68 1.63 1.64 1.75 1.92 2.09 2.41 2.72 3.04 3.33 3.48 3.57 3.63 3.71 3.60 3.60 3.49 3.29 3.05 2.80 2.62 2.47 2.27 2.38 2.64 2.72 2.63 2.59 2.62 2.86 2.99 2.97 2.95
0.05 0.09 0.17 0.25 0.45 0.80 0.66 0.78 1.32 1.73 1.59 1.39 1.32 1.11 1.21 1.40 1.48 1.53 1.62 1.75 1.87 2.18 2.54 2.83 3.05 3.27 3.34 3.12 3.01 3.00 3.03 3.10 3.04 2.85 2.65 2.42 2.29 2.14 1.96 2.04 2.33 2.43 2.45 2.43 2.41 2.49 2.56 2.61 2.65
0.09 0.18 0.61 1.02 1.34 1.22 0.76 0.87 1.47 1.38 1.04 0.97 1.06 1.04 1.02 1.07 1.21 1.33 1.52 1.72 1.90 2.02 2.12 2.56 2.98 3.14 3.05 2.79 2.60 2.51 2.61 2.72 2.64 2.49 2.41 2.28 2.07 1.91 1.89 1.94 2.08 2.10 2.14 2.13 2.22 2.29 2.34 2.50 2.59
0.14 0.25 0.71 1.00 1.07 1.06 0.83 1.25 1.77 1.37 0.92 0.78 0.89 0.88 0.78 0.73 0.70 0.79 0.98 1.09 1.25 1.30 1.32 1.50 1.77 2.01 2.09 1.98 1.98 2.03 2.06 2.13 2.11 2.26 2.12 2.09 1.97 1.81 1.84 1.77 1.75 1.82 1.86 1.86 2.17 2.24 2.36 2.51 2.59
0.24 0.29 0.31 0.52 0.72 1.07 1.09 1.31 1.41 1.18 0.92 0.88 0.96 0.87 0.69 0.65 0.60 0.67 0.78 0.83 0.93 0.97 1.01 1.15 1.40 1.64 1.68 1.68 1.71 1.76 1.77 1.79 1.81 1.86 1.81 1.78 1.80 1.71 1.70 1.69 1.80 1.78 1.82 1.93 2.14 2.18 2.26 2.49 2.54
0.21 0.29 0.44 0.70 0.94 1.09 1.16 1.51 1.67 1.50 1.25 1.09 1.05 0.92 0.71 0.58 0.56 0.63 0.74 0.78 0.89 1.01 1.15 1.27 1.38 1.49 1.49 1.49 1.49 1.44 1.52 1.53 1.56 1.55 1.48 1.49 1.57 1.58 1.56 1.58 1.66 1.72 1.75 1.86 2.08 2.10 2.18 2.31 2.34
0.23 0.31 0.47 0.65 0.71 0.94 1.30 1.45 1.23 1.19 1.17 1.25 1.20 1.00 0.76 0.58 0.53 0.59 0.71 0.77 0.85 0.97 1.11 1.26 1.35 1.44 1.42 1.37 1.43 1.49 1.49 1.51 1.49 1.45 1.38 1.44 1.50 1.53 1.53 1.57 1.66 1.71 1.75 1.87 2.01 2.00 2.12 2.11 2.09
0.22 0.33 0.48 0.73 0.78 0.82 0.99 1.14 0.76 0.79 0.92 1.00 0.99 0.79 0.62 0.55 0.53 0.61 0.73 0.78 0.91 0.99 1.06 1.09 1.18 1.32 1.33 1.34 1.46 1.65 1.62 1.61 1.58 1.44 1.37 1.43 1.44 1.46 1.49 1.58 1.65 1.63 1.72 1.90 2.00 1.98 2.13 2.15 2.08

GEFSSGP_prec_meanprecacc_276.txt.gz
Total_Precipitation_Accumulation
0.05 0.15 0.38 0.60 0.99 1.49 1.47 0.98 0.78 0.56 0.45 0.45 0.36 0.33 0.43 0.66 1.03 1.83 1.70 1.22 0.82 0.78 0.98 1.20 1.32 1.35 1.31 1.30 1.48 1.57 1.59 1.63 1.66 1.79 1.88 1.96 1.98 1.87 1.74 1.72 1.76 1.84 1.82 1.77 1.78 1.80 1.71 1.49 1.40
0.07 0.18 0.38 0.65 1.18 1.66 1.40 0.75 0.51 0.41 0.36 0.38 0.36 0.36 0.53 0.61 0.61 0.98 1.12 0.99 0.66 0.66 0.81 0.93 1.12 1.14 1.09 1.12 1.19 1.35 1.47 1.44 1.52 1.77 1.87 1.95 1.89 1.79 1.73 1.64 1.67 1.77 1.86 1.92 1.80 1.67 1.52 1.32 1.26
0.10 0.18 0.34 0.63 1.00 1.19 1.00 0.60 0.39 0.32 0.37 0.50 0.52 0.44 0.67 0.71 0.63 0.86 0.91 0.70 0.58 0.68 0.86 0.93 0.92 0.84 0.80 0.81 0.91 1.13 1.29 1.42 1.52 1.65 1.70 1.75 1.70 1.69 1.61 1.54 1.63 1.78 1.99 2.05 1.82 1.56 1.37 1.22 1.09
0.09 0.19 0.28 0.49 0.60 0.56 0.53 0.44 0.34 0.33 0.36 0.47 0.57 0.60 0.76 0.65 0.54 0.67 0.74 0.60 0.54 0.65 0.70 0.71 0.72 0.66 0.67 0.71 0.84 0.98 1.09 1.27 1.44 1.46 1.52 1.62 1.70 1.67 1.57 1.60 1.74 1.94 2.07 1.92 1.68 1.43 1.28 1.18 1.04
0.09 0.17 0.28 0.45 0.52 0.49 0.41 0.38 0.34 0.41 0.45 0.52 0.58 0.82 0.96 0.82 0.61 0.59 0.65 0.53 0.39 0.43 0.48 0.54 0.62 0.59 0.62 0.64 0.75 0.92 1.08 1.21 1.21 1.28 1.54 1.69 1.72 1.72 1.75 1.74 1.88 1.97 1.92 1.76 1.63 1.40 1.28 1.14 1.08
0.07 0.13 0.22 0.37 0.44 0.45 0.37 0.30 0.26 0.35 0.50 0.66 0.72 0.86 1.08 1.01 0.76 0.65 0.51 0.44 0.35 0.31 0.43 0.55 0.62 0.61 0.61 0.63 0.73 0.90 1.02 1.09 1.14 1.25 1.41 1.54 1.61 1.69 1.79 1.85 1.94 1.90 1.84 1.67 1.51 1.31 1.24 1.20 1.15
0.05 0.09 0.14 0.27 0.35 0.34 0.30 0.30 0.26 0.30 0.48 0.68 0.71 0.98 1.20 1.22 0.94 0.69 0.57 0.54 0.54 0.43 0.50 0.63 0.68 0.71 0.75 0.85 0.93 1.05 1.10 1.17 1.23 1.28 1.33 1.35 1.46 1.60 1.72 1.86 1.95 1.92 1.76 1.50 1.38 1.25 1.19 1.16 1.16
0.07 0.06 0.09 0.16 0.22 0.30 0.24 0.24 0.25 0.33 0.38 0.48 0.59 0.85 1.16 1.13 0.95 0.87 0.97 0.93 0.98 0.78 0.64 0.63 0.78 0.92 0.91 0.93 1.09 1.15 1.21 1.24 1.26 1.29 1.36 1.45 1.57 1.62 1.74 1.84 2.06 2.07 1.80 1.48 1.36 1.22 1.09 1.10 1.16
0.04 0.10 0.10 0.11 0.14 0.20 0.17 0.23 0.24 0.21 0.27 0.36 0.48 0.67 0.89 0.88 0.90 1.13 1.40 1.26 1.29 1.12 0.87 0.72 0.68 0.85 1.01 1.01 1.05 1.18 1.25 1.31 1.40 1.54 1.63 1.77 1.91 1.86 2.08 2.18 2.39 2.33 2.01 1.77 1.59 1.40 1.27 1.17 1.15
0.02 0.09 0.08 0.07 0.07 0.11 0.13 0.19 0.20 0.24 0.46 0.72 0.84 0.89 0.97 1.22 1.28 1.39 1.47 1.37 1.34 1.31 1.11 0.95 0.84 0.81 0.93 0.97 1.20 1.50 1.46 1.55 1.74 2.02 2.10 2.33 2.43 2.41 2.11 2.52 2.79 2.72 2.55 2.29 2.17 1.99 1.68 1.40 1.33
0.01 0.05 0.07 0.07 0.05 0.06 0.10 0.11 0.16 0.27 0.61 0.98 1.22 1.29 1.32 1.55 1.76 1.79 1.85 1.85 1.73 1.63 1.38 1.14 1.06 1.08 1.08 1.25 1.26 1.49 1.77 2.00 2.07 2.10 2.22 2.44 2.39 2.26 2.24 2.52 2.65 2.65 2.60 2.56 2.70 2.56 2.13 2.09 2.19
0.01 0.02 0.03 0.05 0.03 0.04 0.06 0.08 0.17 0.39 0.78 0.94 1.17 1.35 1.41 1.79 1.87 1.87 2.30 2.39 1.97 1.68 1.61 1.50 1.43 1.42 1.50 1.40 1.52 1.54 1.65 1.83 1.98 2.14 2.19 2.36 2.63 2.63 2.57 2.65 2.55 2.68 2.75 3.07 2.90 3.02 2.81 2.53 2.25
0.01 0.01 0.02 0.03 0.03 0.03 0.05 0.09 0.18 0.37 0.60 0.69 0.91 1.10 1.15 1.64 1.94 2.17 2.68 2.64 2.33 2.13 2.01 1.86 1.83 1.91 1.91 1.89 1.90 1.70 1.74 1.82 1.95 2.15 2.39 2.45 2.59 2.66 2.67 2.71 2.70 2.40 2.42 2.71 2.98 2.88 3.00 3.00 2.78
0.01 0.02 0.04 0.04 0.04 0.04 0.05 0.12 0.23 0.43 0.57 0.80 0.82 0.98 1.21 1.60 1.89 2.30 2.63 2.88 2.74 2.48 2.29 2.15 2.12 2.22 2.31 2.28 2.32 2.21 1.94 2.04 2.03 2.29 2.40 2.51 2.59 2.72 2.86 2.89 2.83 2.47 2.39 2.65 2.86 2.75 3.08 3.04 3.00
0.02 0.06 0.09 0.08 0.06 0.07 0.08 0.26 0.48 0.58 0.70 0.87 1.00 1.10 1.32 1.68 2.18 2.44 2.70 3.01 3.04 2.96 2.79 2.56 2.45 2.61 2.83 2.92 2.85 2.62 2.38 2.17 2.19 2.33 2.45 2.57 2.56 2.77 2.77 2.71 2.72 2.69 2.56 2.75 2.84 2.85 3.00 2.87 2.75
0.05 0.07 0.13 0.14 0.10 0.10 0.16 0.58 0.72 0.60 0.78 0.97 1.06 1.29 1.60 1.98 2.42 2.92 3.08 2.98 3.01 3.16 3.11 2.81 2.58 3.02 3.38 3.42 3.36 3.09 2.79 2.47 2.36 2.43 2.55 2.62 2.70 2.81 2.95 2.70 2.59 2.83 2.78 2.94 3.24 3.15 3.25 3.36 3.22
0.07 0.12 0.13 0.18 0.13 0.13 0.26 0.74 0.72 0.54 0.66 0.84 1.07 1.31 1.74 2.26 2.61 2.79 2.85 3.04 3.18 3.29 3.25 3.17 3.26 3.36 3.48 3.57 3.67 3.41 3.15 2.90 2.63 2.55 2.55 2.65 2.79 2.90 3.24 3.12 3.10 3.02 3.01 3.07 2.76 3.34 3.62 3.66 3.49
0.06 0.09 0.16 0.18 0.16 0.19 0.29 0.55 0.64 0.64 0.79 0.92 1.22 1.43 1.59 1.98 2.43 2.54 2.66 3.14 3.24 3.43 3.55 3.47 3.58 3.71 3.96 4.16 4.32 3.93 3.52 3.22 2.93 2.74 2.80 2.85 3.04 3.17 3.46 3.34 3.30 3.15 3.23 3.25 3.28 3.72 3.66 3.40 3.41
0.04 0.08 0.17 0.19 0.17 0.23 0.33 0.54 0.74 0.83 0.98 1.28 1.48 1.48 1.46 1.75 2.24 2.60 2.86 3.06 3.41 3.63 3.80 3.79 4.01 4.40 4.72 4.56 4.23 4.02 3.74 3.50 3.26 2.99 2.88 2.92 2.90 3.07 3.42 3.28 3.53 3.41 3.26 3.24 3.23 3.51 3.59 3.33 3.52
0.03 0.07 0.16 0.20 0.19 0.30 0.44 0.67 0.84 1.04 1.27 1.36 1.28 1.28 1.42 1.80 2.30 2.66 2.94 3.10 3.37 3.65 4.08 4.22 4.41 4.75 4.87 4.71 4.57 4.39 4.23 3.83 3.69 3.51 3.31 2.96 2.76 2.86 2.93 3.25 3.08 3.15 3.27 3.20 3.33 3.59 3.48 3.10 3.54
0.05 0.08 0.15 0.16 0.24 0.40 0.51 0.94 1.12 1.28 1.40 1.39 1.32 1.51 1.52 1.60 2.03 2.31 2.43 2.62 2.81 2.96 3.21 3.51 4.00 4.51 4.68 4.74 4.65 4.58 4.58 4.09 3.80 3.64 3.43 3.03 2.75 2.67 2.84 3.00 3.08 3.12 3.02 3.12 3.35 3.41 3.45 3.32 3.39
0.07 0.07 0.08 0.12 0.23 0.51 0.58 1.17 1.40 1.60 1.72 1.58 1.51 1.43 1.39 1.63 1.98 1.99 1.83 1.98 2.24 2.24 2.56 2.98 3.44 3.79 4.01 4.09 4.09 4.10 4.05 3.92 3.82 3.67 3.27 2.99 2.74 2.65 2.73 2.85 2.93 2.97 2.82 2.96 2.81 2.96 3.42 3.52 3.29
0.05 0.06 0.09 0.14 0.25 0.47 0.52 0.87 1.41 1.80 1.98 1.60 1.49 1.36 1.41 1.64 1.69 1.64 1.64 1.75 1.92 2.09 2.41 2.73 3.05 3.34 3.50 3.59 3.65 3.72 3.61 3.62 3.51 3.32 3.08 2.84 2.66 2.51 2.31 2.41 2.67 2.76 2.67 2.63 2.66 2.91 3.04 3.02 3.01
0.05 0.09 0.17 0.25 0.45 0.80 0.66 0.78 1.32 1.73 1.59 1.39 1.32 1.11 1.21 1.40 1.48 1.53 1.62 1.75 1.87 2.18 2.54 2.83 3.06 3.27 3.35 3.13 3.02 3.01 3.04 3.12 3.06 2.88 2.68 2.45 2.32 2.18 2.00 2.07 2.36 2.47 2.49 2.49 2.47 2.54 2.62 2.67 2.71
0.09 0.18 0.62 1.03 1.35 1.22 0.76 0.87 1.47 1.38 1.04 0.97 1.06 1.04 1.02 1.07 1.21 1.33 1.52 1.72 1.90 2.02 2.12 2.56 2.98 3.15 3.06 2.80 2.61 2.52 2.63 2.73 2.66 2.52 2.44 2.32 2.10 1.94 1.93 1.97 2.11 2.15 2.19 2.18 2.27 2.34 2.38 2.54 2.63
0.14 0.25 0.72 1.00 1.08 1.06 0.83 1.25 1.77 1.37 0.92 0.78 0.89 0.88 0.78 0.73 0.70 0.79 0.98 1.09 1.25 1.30 1.33 1.50 1.78 2.02 2.10 1.99 1.99 2.04 2.08 2.14 2.13 2.29 2.15 2.12 2.00 1.85 1.88 1.81 1.79 1.86 1.89 1.89 2.21 2.26 2.39 2.55 2.62
0.24 0.29 0.31 0.52 0.72 1.07 1.09 1.31 1.41 1.18 0.92 0.88 0.96 0.87 0.69 0.65 0.60 0.67 0.78 0.83 0.93 0.97 1.01 1.15 1.40 1.64 1.68 1.68 1.72 1.77 1.78 1.81 1.83 1.89 1.83 1.79 1.82 1.75 1.74 1.71 1.82 1.80 1.85 1.98 2.19 2.21 2.30 2.53 2.57
0.21 0.29 0.44 0.70 0.94 1.09 1.16 1.51 1.67 1.50 1.25 1.09 1.05 0.92 0.71 0.58 0.56 0.63 0.74 0.78 0.89 1.01 1.15 1.28 1.39 1.49 1.50 1.49 1.50 1.45 1.53 1.54 1.58 1.57 1.50 1.51 1.59 1.60 1.58 1.60 1.68 1.74 1.77 1.87 2.11 2.13 2.22 2.35 2.38
0.23 0.31 0.47 0.65 0.71 0.94 1.30 1.45 1.23 1.19 1.17 1.25 1.20 1.00 0.76 0.58 0.53 0.59 0.71 0.77 0.85 0.98 1.12 1.27 1.35 1.45 1.42 1.38 1.45 1.49 1.50 1.53 1.50 1.46 1.39 1.46 1.52 1.54 1.54 1.59 1.68 1.73 1.76 1.89 2.03 2.03 2.15 2.16 2.14
0.22 0.33 0.48 0.73 0.78 0.82 0.99 1.14 0.76 0.79 0.92 1.00 0.99 0.79 0.62 0.55 0.53 0.62 0.73 0.79 0.93 1.00 1.07 1.10 1.19 1.32 1.34 1.36 1.47 1.66 1.63 1.62 1.58 1.44 1.38 1.44 1.44 1.47 1.50 1.59 1.67 1.64 1.74 1.92 2.02 2.01 2.16 2.22 2.18

GEFSSGP_prec_meanprecacc_282.txt.gz
Total_Precipitation_Accumulation
0.05 0.15 0.40 0.63 1.05 1.54 1.50 1.00 0.80 0.57 0.45 0.46 0.36 0.33 0.43 0.69 1.07 1.91 1.83 1.33 0.93 0.90 1.10 1.31 1.42 1.43 1.38 1.37 1.55 1.63 1.64 1.68 1.72 1.86 1.95 2.03 2.07 1.95 1.82 1.83 1.86 1.96 1.95 1.94 2.03 2.03 1.95 1.73 1.59
0.08 0.18 0.39 0.69 1.24 1.70 1.42 0.77 0.52 0.41 0.36 0.39 0.36 0.36 0.53 0.61 0.62 1.04 1.23 1.10 0.74 0.74 0.92 1.06 1.22 1.22 1.18 1.21 1.26 1.41 1.51 1.50 1.59 1.84 1.95 2.02 1.98 1.87 1.80 1.73 1.78 1.91 2.03 2.08 1.97 1.84 1.69 1.47 1.38
0.10 0.19 0.38 0.69 1.04 1.22 1.03 0.62 0.40 0.33 0.37 0.50 0.52 0.44 0.67 0.73 0.66 0.94 1.05 0.80 0.65 0.75 0.95 1.04 1.02 0.95 0.92 0.90 0.98 1.18 1.34 1.47 1.59 1.72 1.77 1.83 1.79 1.79 1.69 1.62 1.74 1.93 2.22 2.26 1.97 1.68 1.47 1.32 1.19
0.10 0.21 0.31 0.52 0.62 0.57 0.54 0.45 0.36 0.34 0.36 0.47 0.57 0.60 0.78 0.68 0.58 0.77 0.85 0.68 0.58 0.71 0.77 0.78 0.82 0.77 0.77 0.78 0.89 1.02 1.14 1.32 1.50 1.55 1.61 1.73 1.81 1.77 1.66 1.68 1.84 2.06 2.25 2.13 1.84 1.56 1.39 1.28 1.15
0.13 0.21 0.31 0.47 0.53 0.50 0.41 0.38 0.35 0.41 0.45 0.53 0.58 0.83 1.00 0.87 0.67 0.70 0.73 0.59 0.44 0.48 0.54 0.59 0.68 0.67 0.71 0.72 0.83 0.98 1.14 1.29 1.31 1.40 1.70 1.86 1.82 1.82 1.84 1.85 1.99 2.07 2.03 1.89 1.75 1.51 1.39 1.23 1.18
0.10 0.16 0.25 0.39 0.46 0.45 0.37 0.31 0.27 0.35 0.50 0.66 0.73 0.88 1.15 1.10 0.85 0.76 0.60 0.53 0.41 0.36 0.48 0.59 0.66 0.67 0.68 0.71 0.84 1.00 1.12 1.20 1.26 1.40 1.60 1.73 1.72 1.78 1.89 1.96 2.05 1.99 1.95 1.81 1.63 1.41 1.33 1.28 1.23
0.06 0.11 0.16 0.28 0.37 0.35 0.30 0.30 0.27 0.31 0.49 0.68 0.72 1.00 1.28 1.32 1.03 0.76 0.62 0.59 0.58 0.47 0.55 0.69 0.75 0.81 0.88 0.99 1.07 1.18 1.22 1.29 1.37 1.44 1.49 1.53 1.61 1.71 1.83 1.98 2.06 2.03 1.90 1.66 1.52 1.37 1.27 1.25 1.26
0.08 0.08 0.11 0.18 0.23 0.31 0.25 0.25 0.25 0.33 0.38 0.48 0.59 0.87 1.20 1.18 1.00 0.91 1.02 0.97 1.01 0.81 0.70 0.73 0.89 1.06 1.06 1.10 1.26 1.32 1.34 1.36 1.39 1.42 1.49 1.57 1.72 1.78 1.89 1.99 2.20 2.23 1.97 1.63 1.49 1.33 1.18 1.20 1.28
0.05 0.14 0.15 0.14 0.15 0.21 0.17 0.23 0.24 0.22 0.28 0.36 0.49 0.68 0.90 0.90 0.94 1.19 1.46 1.30 1.33 1.16 0.92 0.80 0.77 0.94 1.11 1.14 1.19 1.34 1.39 1.44 1.52 1.68 1.77 1.91 2.07 2.02 2.26 2.36 2.57 2.55 2.23 1.92 1.71 1.51 1.36 1.27 1.27
0.03 0.12 0.11 0.08 0.07 0.11 0.14 0.19 0.20 0.25 0.47 0.72 0.85 0.90 0.99 1.24 1.31 1.45 1.53 1.42 1.39 1.36 1.17 1.03 0.93 0.90 1.01 1.04 1.28 1.62 1.59 1.69 1.87 2.18 2.27 2.48 2.58 2.56 2.25 2.69 3.01 2.97 2.78 2.46 2.32 2.13 1.78 1.50 1.44
0.02 0.07 0.07 0.07 0.05 0.06 0.10 0.11 0.16 0.27 0.62 0.99 1.23 1.31 1.35 1.57 1.80 1.84 1.89 1.89 1.78 1.68 1.43 1.20 1.14 1.16 1.14 1.31 1.34 1.59 1.90 2.15 2.24 2.31 2.40 2.61 2.54 2.40 2.38 2.74 2.93 2.92 2.83 2.77 2.88 2.69 2.23 2.17 2.28
0.01 0.02 0.03 0.05 0.03 0.04 0.06 0.08 0.17 0.39 0.79 0.96 1.20 1.39 1.44 1.82 1.91 1.91 2.34 2.43 2.01 1.71 1.64 1.54 1.48 1.47 1.55 1.45 1.59 1.62 1.75 1.99 2.20 2.38 2.40 2.53 2.82 2.79 2.74 2.89 2.81 2.92 2.95 3.23 3.04 3.14 2.90 2.60 2.36
0.01 0.01 0.02 0.03 0.03 0.03 0.05 0.09 0.18 0.38 0.62 0.73 0.94 1.12 1.16 1.65 1.96 2.19 2.68 2.65 2.36 2.15 2.04 1.89 1.87 1.95 1.96 1.95 1.96 1.76 1.84 2.01 2.19 2.39 2.59 2.60 2.76 2.86 2.88 2.95 2.93 2.59 2.58 2.84 3.10 3.00 3.10 3.09 2.86
0.01 0.02 0.04 0.04 0.04 0.04 0.05 0.12 0.23 0.44 0.59 0.82 0.83 0.99 1.22 1.61 1.89 2.30 2.63 2.89 2.75 2.49 2.32 2.17 2.14 2.25 2.34 2.33 2.37 2.27 2.05 2.22 2.23 2.49 2.57 2.65 2.72 2.88 3.07 3.15 3.07 2.65 2.52 2.76 2.96 2.86 3.18 3.13 3.08
0.02 0.06 0.09 0.08 0.06 0.07 0.08 0.27 0.49 0.58 0.71 0.88 1.01 1.11 1.33 1.70 2.18 2.44 2.70 3.01 3.05 2.97 2.80 2.58 2.47 2.63 2.85 2.95 2.89 2.69 2.49 2.33 2.38 2.52 2.60 2.70 2.68 2.92 2.94 2.91 2.90 2.84 2.67 2.83 2.92 2.93 3.08 2.95 2.82
0.05 0.07 0.13 0.14 0.10 0.10 0.17 0.59 0.72 0.60 0.78 0.98 1.07 1.30 1.61 1.99 2.43 2.92 3.08 2.99 3.02 3.16 3.12 2.82 2.60 3.04 3.40 3.45 3.41 3.15 2.88 2.57 2.51 2.59 2.70 2.79 2.86 2.97 3.11 2.84 2.73 2.99 2.92 3.03 3.31 3.23 3.33 3.45 3.32
0.08 0.12 0.14 0.18 0.13 0.13 0.26 0.74 0.72 0.54 0.66 0.85 1.08 1.32 1.74 2.26 2.62 2.79 2.85 3.04 3.19 3.30 3.26 3.18 3.28 3.39 3.53 3.61 3.71 3.46 3.21 2.98 2.73 2.67 2.69 2.78 2.90 2.99 3.33 3.21 3.22 3.16 3.14 3.18 2.84 3.41 3.72 3.78 3.62
0.09 0.10 0.16 0.18 0.16 0.19 0.29 0.56 0.64 0.64 0.79 0.92 1.22 1.44 1.59 1.98 2.43 2.54 2.66 3.14 3.24 3.44 3.56 3.49 3.60 3.74 4.01 4.19 4.36 3.98 3.58 3.28 3.00 2.83 2.88 2.92 3.12 3.23 3.52 3.42 3.39 3.27 3.38 3.38 3.38 3.82 3.78 3.53 3.53
0.04 0.09 0.17 0.19 0.17 0.23 0.33 0.54 0.74 0.83 0.98 1.28 1.48 1.48 1.46 1.75 2.24 2.60 2.87 3.07 3.42 3.63 3.81 3.81 4.03 4.44 4.76 4.60 4.26 4.06 3.78 3.54 3.30 3.04 2.93 2.96 2.94 3.12 3.48 3.36 3.64 3.52 3.38 3.34 3.31 3.60 3.69 3.44 3.62
0.03 0.08 0.17 0.20 0.19 0.30 0.44 0.67 0.84 1.04 1.27 1.36 1.28 1.28 1.42 1.80 2.30 2.67 2.94 3.11 3.38 3.66 4.09 4.23 4.42 4.78 4.91 4.75 4.60 4.42 4.27 3.87 3.72 3.55 3.35 2.98 2.79 2.88 2.97 3.30 3.13 3.22 3.36 3.31 3.43 3.68 3.56 3.20 3.65
0.05 0.09 0.15 0.17 0.24 0.40 0.52 0.94 1.12 1.28 1.40 1.39 1.32 1.51 1.52 1.60 2.03 2.31 2.43 2.62 2.81 2.97 3.23 3.52 4.01 4.53 4.71 4.77 4.67 4.60 4.62 4.14 3.84 3.68 3.47 3.06 2.77 2.68 2.86 3.03 3.11 3.16 3.06 3.19 3.44 3.49 3.54 3.42 3.51
0.07 0.08 0.08 0.13 0.24 0.51 0.60 1.20 1.41 1.61 1.72 1.58 1.51 1.43 1.39 1.63 1.98 1.99 1.83 1.98 2.24 2.25 2.57 2.99 3.45 3.81 4.04 4.12 4.11 4.13 4.09 3.98 3.87 3.72 3.31 3.02 2.76 2.67 2.75 2.88 2.97 3.01 2.86 3.02 2.87 3.02 3.49 3.60 3.40
0.06 0.06 0.09 0.14 0.26 0.48 0.52 0.89 1.42 1.80 1.98 1.60 1.50 1.36 1.41 1.64 1.69 1.64 1.65 1.75 1.93 2.09 2.42 2.73 3.06 3.36 3.52 3.61 3.67 3.77 3.66 3.67 3.55 3.36 3.12 2.89 2.70 2.54 2.33 2.43 2.70 2.79 2.70 2.67 2.70 2.97 3.10 3.07 3.07
0.05 0.09 0.17 0.26 0.46 0.82 0.66 0.79 1.34 1.74 1.60 1.39 1.32 1.11 1.21 1.40 1.49 1.54 1.63 1.75 1.88 2.18 2.54 2.83 3.07 3.29 3.36 3.14 3.04 3.04 3.08 3.15 3.09 2.92 2.73 2.49 2.37 2.22 2.03 2.09 2.39 2.51 2.54 2.53 2.51 2.59 2.67 2.72 2.75
0.09 0.19 0.63 1.06 1.39 1.25 0.76 0.88 1.48 1.39 1.04 0.97 1.06 1.04 1.03 1.07 1.21 1.33 1.52 1.72 1.90 2.02 2.12 2.56 2.99 3.16 3.07 2.81 2.62 2.54 2.66 2.77 2.68 2.54 2.48 2.35 2.15 2.00 1.97 2.00 2.14 2.20 2.24 2.23 2.32 2.40 2.43 2.59 2.69
0.14 0.25 0.73 1.03 1.12 1.09 0.84 1.25 1.77 1.37 0.93 0.78 0.89 0.88 0.78 0.73 0.70 0.80 0.98 1.09 1.25 1.30 1.33 1.50 1.78 2.02 2.10 2.00 2.02 2.06 2.10 2.17 2.16 2.32 2.18 2.15 2.03 1.89 1.91 1.83 1.81 1.89 1.93 1.92 2.25 2.30 2.44 2.60 2.68
0.24 0.29 0.31 0.53 0.74 1.10 1.10 1.31 1.42 1.18 0.92 0.88 0.96 0.87 0.69 0.65 0.61 0.67 0.78 0.83 0.94 0.97 1.01 1.16 1.41 1.64 1.69 1.70 1.75 1.79 1.80 1.83 1.86 1.92 1.87 1.82 1.86 1.78 1.76 1.73 1.84 1.82 1.88 2.01 2.22 2.25 2.33 2.58 2.62
0.21 0.29 0.44 0.71 0.95 1.11 1.18 1.53 1.69 1.52 1.26 1.10 1.05 0.92 0.71 0.58 0.56 0.63 0.74 0.78 0.89 1.01 1.16 1.28 1.39 1.50 1.50 1.50 1.51 1.46 1.55 1.56 1.61 1.60 1.54 1.54 1.62 1.62 1.61 1.63 1.71 1.76 1.79 1.90 2.14 2.17 2.25 2.39 2.43
0.23 0.31 0.48 0.66 0.72 0.95 1.32 1.47 1.24 1.21 1.19 1.26 1.20 1.00 0.76 0.58 0.53 0.59 0.71 0.77 0.85 0.98 1.12 1.27 1.35 1.45 1.42 1.38 1.45 1.51 1.51 1.54 1.51 1.48 1.40 1.47 1.54 1.57 1.57 1.62 1.71 1.76 1.79 1.91 2.06 2.05 2.18 2.19 2.19
0.22 0.33 0.49 0.74 0.79 0.83 1.00 1.16 0.77 0.80 0.92 1.01 0.99 0.79 0.62 0.55 0.53 0.62 0.73 0.79 0.93 1.00 1.07 1.10 1.19 1.32 1.34 1.36 1.48 1.67 1.64 1.63 1.60 1.45 1.39 1.45 1.46 1.49 1.52 1.61 1.69 1.67 1.76 1.95 2.04 2.03 2.18 2.24 2.21

GEFSSGP_prec_meanprecacc_288.txt.gz
Total_Precipitation_Accumulation
0.06 0.21 0.51 0.76 1.16 1.62 1.53 1.02 0.81 0.57 0.45 0.46 0.37 0.34 0.44 0.71 1.10 1.96 1.95 1.44 1.03 1.00 1.19 1.38 1.47 1.48 1.42 1.41 1.58 1.66 1.66 1.70 1.74 1.89 1.99 2.08 2.11 1.98 1.85 1.86 1.91 2.01 2.02 2.02 2.11 2.14 2.08 1.88 1.72
0.11 0.27 0.51 0.85 1.35 1.76 1.45 0.79 0.53 0.42 0.37 0.39 0.36 0.37 0.54 0.63 0.64 1.09 1.34 1.24 0.84 0.80 0.96 1.11 1.27 1.28 1.23 1.27 1.31 1.43 1.53 1.51 1.61 1.87 1.98 2.06 2.01 1.91 1.84 1.76 1.83 1.96 2.10 2.19 2.12 1.98 1.83 1.61 1.48
0.16 0.28 0.49 0.84 1.11 1.27 1.05 0.64 0.42 0.33 0.37 0.50 0.53 0.44 0.68 0.75 0.69 1.01 1.17 0.86 0.70 0.79 0.99 1.09 1.09 1.04 0.98 0.95 1.02 1.20 1.35 1.49 1.61 1.74 1.79 1.85 1.82 1.82 1.73 1.66 1.78 2.00 2.34 2.41 2.13 1.82 1.59 1.45 1.30
0.18 0.33 0.42 0.62 0.69 0.60 0.55 0.46 0.36 0.34 0.36 0.47 0.57 0.61 0.80 0.72 0.62 0.85 0.93 0.71 0.61 0.75 0.80 0.84 0.94 0.87 0.84 0.83 0.92 1.04 1.16 1.35 1.53 1.58 1.64 1.76 1.84 1.80 1.70 1.73 1.89 2.16 2.41 2.28 1.98 1.72 1.50 1.38 1.23
0.22 0.30 0.41 0.56 0.60 0.52 0.42 0.39 0.35 0.41 0.45 0.53 0.58 0.84 1.03 0.93 0.74 0.77 0.78 0.63 0.47 0.50 0.56 0.62 0.74 0.73 0.76 0.75 0.85 1.00 1.17 1.32 1.34 1.44 1.73 1.90 1.86 1.86 1.88 1.90 2.06 2.15 2.13 1.99 1.85 1.66 1.52 1.35 1.27
0.18 0.22 0.34 0.48 0.51 0.48 0.39 0.32 0.27 0.35 0.50 0.66 0.73 0.89 1.21 1.16 0.92 0.81 0.63 0.57 0.45 0.39 0.51 0.62 0.71 0.72 0.72 0.74 0.86 1.03 1.17 1.27 1.32 1.45 1.67 1.79 1.76 1.83 1.95 2.01 2.12 2.07 2.01 1.87 1.69 1.47 1.39 1.34 1.30
0.17 0.17 0.22 0.32 0.39 0.37 0.32 0.31 0.27 0.31 0.49 0.68 0.72 1.02 1.34 1.39 1.08 0.81 0.67 0.64 0.63 0.52 0.60 0.77 0.81 0.86 0.94 1.04 1.11 1.21 1.28 1.38 1.46 1.51 1.55 1.59 1.67 1.78 1.91 2.04 2.12 2.11 1.97 1.72 1.58 1.43 1.33 1.29 1.30
0.13 0.14 0.17 0.21 0.25 0.34 0.26 0.25 0.26 0.34 0.38 0.48 0.60 0.88 1.23 1.24 1.05 0.96 1.08 1.04 1.08 0.89 0.79 0.83 0.99 1.15 1.14 1.17 1.33 1.39 1.43 1.45 1.48 1.49 1.57 1.66 1.81 1.87 1.99 2.08 2.27 2.31 2.05 1.70 1.56 1.40 1.25 1.25 1.34
0.07 0.19 0.24 0.18 0.17 0.22 0.18 0.24 0.25 0.22 0.28 0.37 0.50 0.70 0.92 0.93 0.97 1.24 1.53 1.39 1.40 1.24 1.01 0.91 0.89 1.07 1.24 1.26 1.31 1.46 1.51 1.55 1.64 1.78 1.88 2.03 2.18 2.13 2.41 2.49 2.69 2.67 2.34 2.01 1.80 1.59 1.43 1.34 1.34
0.04 0.15 0.16 0.10 0.09 0.12 0.14 0.19 0.21 0.25 0.47 0.74 0.87 0.93 1.02 1.27 1.35 1.48 1.56 1.47 1.44 1.41 1.21 1.10 1.04 1.03 1.17 1.22 1.44 1.75 1.70 1.79 1.97 2.27 2.38 2.59 2.68 2.67 2.39 2.87 3.22 3.15 2.94 2.59 2.43 2.21 1.84 1.56 1.48
0.04 0.09 0.09 0.09 0.06 0.07 0.11 0.12 0.16 0.27 0.64 1.01 1.24 1.33 1.37 1.59 1.83 1.86 1.90 1.92 1.83 1.74 1.48 1.27 1.22 1.26 1.28 1.44 1.46 1.70 2.00 2.25 2.33 2.39 2.48 2.69 2.62 2.50 2.52 2.97 3.21 3.17 3.06 2.97 3.04 2.79 2.30 2.24 2.34
0.02 0.02 0.04 0.05 0.04 0.05 0.07 0.09 0.18 0.41 0.81 0.97 1.21 1.40 1.46 1.85 1.94 1.92 2.36 2.46 2.06 1.77 1.71 1.62 1.55 1.55 1.63 1.52 1.67 1.70 1.84 2.08 2.28 2.45 2.45 2.60 2.92 2.90 2.93 3.14 3.04 3.11 3.15 3.42 3.20 3.25 3.01 2.69 2.44
0.01 0.02 0.03 0.03 0.03 0.03 0.05 0.10 0.19 0.40 0.63 0.73 0.95 1.13 1.18 1.67 1.99 2.21 2.70 2.68 2.39 2.18 2.10 1.96 1.93 2.00 2.01 2.00 2.01 1.82 1.94 2.11 2.25 2.44 2.63 2.66 2.87 2.98 3.06 3.14 3.08 2.70 2.71 2.97 3.20 3.09 3.20 3.17 2.92
0.01 0.03 0.04 0.04 0.04 0.05 0.06 0.13 0.25 0.46 0.59 0.82 0.83 1.00 1.23 1.61 1.90 2.31 2.65 2.90 2.77 2.53 2.36 2.21 2.19 2.30 2.38 2.36 2.42 2.36 2.14 2.31 2.30 2.57 2.62 2.69 2.77 2.96 3.19 3.30 3.22 2.79 2.65 2.88 3.06 2.95 3.24 3.17 3.11
0.02 0.06 0.10 0.08 0.07 0.07 0.09 0.28 0.50 0.60 0.71 0.88 1.02 1.11 1.34 1.70 2.18 2.45 2.71 3.02 3.06 3.00 2.82 2.59 2.49 2.66 2.89 3.00 2.98 2.82 2.59 2.42 2.47 2.60 2.64 2.73 2.71 2.96 3.01 3.04 3.06 3.00 2.80 2.94 3.02 3.01 3.13 2.98 2.86
0.05 0.08 0.14 0.14 0.10 0.10 0.17 0.60 0.73 0.62 0.79 1.00 1.09 1.31 1.61 2.00 2.43 2.93 3.09 3.00 3.03 3.18 3.12 2.83 2.61 3.05 3.42 3.50 3.51 3.30 3.02 2.68 2.61 2.66 2.73 2.82 2.89 3.00 3.16 2.93 2.87 3.15 3.07 3.18 3.43 3.31 3.40 3.50 3.37
0.09 0.16 0.15 0.18 0.14 0.14 0.26 0.76 0.73 0.55 0.67 0.87 1.09 1.33 1.75 2.26 2.62 2.80 2.85 3.05 3.19 3.30 3.27 3.20 3.29 3.40 3.54 3.63 3.77 3.55 3.31 3.08 2.82 2.73 2.73 2.81 2.93 3.02 3.36 3.26 3.30 3.29 3.28 3.31 2.97 3.52 3.80 3.84 3.68
0.10 0.11 0.17 0.19 0.16 0.20 0.29 0.56 0.65 0.65 0.82 0.93 1.23 1.45 1.60 1.98 2.43 2.55 2.68 3.15 3.25 3.44 3.57 3.49 3.60 3.75 4.02 4.21 4.40 4.03 3.64 3.36 3.08 2.89 2.93 2.97 3.15 3.27 3.55 3.47 3.44 3.33 3.45 3.46 3.48 3.92 3.87 3.60 3.60
0.04 0.10 0.21 0.20 0.18 0.24 0.33 0.55 0.75 0.83 0.99 1.29 1.49 1.50 1.46 1.75 2.24 2.61 2.88 3.08 3.42 3.64 3.81 3.81 4.04 4.45 4.77 4.62 4.29 4.10 3.84 3.61 3.38 3.11 2.99 3.01 2.99 3.16 3.52 3.41 3.69 3.57 3.42 3.39 3.37 3.68 3.78 3.52 3.69
0.04 0.08 0.18 0.20 0.19 0.30 0.44 0.67 0.84 1.05 1.27 1.36 1.28 1.28 1.43 1.81 2.31 2.67 2.95 3.12 3.40 3.67 4.10 4.23 4.43 4.79 4.92 4.76 4.62 4.47 4.32 3.92 3.77 3.60 3.40 3.04 2.85 2.94 3.02 3.35 3.19 3.28 3.41 3.36 3.48 3.75 3.64 3.29 3.75
0.05 0.10 0.16 0.17 0.25 0.41 0.53 0.95 1.13 1.28 1.40 1.39 1.32 1.52 1.54 1.62 2.04 2.32 2.44 2.63 2.82 2.97 3.23 3.53 4.02 4.54 4.72 4.77 4.68 4.63 4.65 4.17 3.88 3.72 3.51 3.12 2.84 2.74 2.91 3.07 3.16 3.23 3.13 3.25 3.49 3.55 3.60 3.47 3.57
0.07 0.08 0.09 0.13 0.25 0.53 0.61 1.22 1.42 1.61 1.72 1.59 1.52 1.46 1.45 1.68 2.00 2.01 1.84 1.99 2.26 2.26 2.58 3.00 3.46 3.82 4.04 4.12 4.12 4.15 4.12 4.00 3.90 3.75 3.35 3.08 2.82 2.72 2.79 2.92 3.01 3.08 2.92 3.06 2.91 3.05 3.52 3.63 3.44
0.06 0.07 0.10 0.15 0.27 0.51 0.55 0.92 1.44 1.81 1.99 1.61 1.51 1.38 1.44 1.67 1.70 1.66 1.67 1.78 1.95 2.11 2.43 2.74 3.07 3.36 3.53 3.62 3.69 3.79 3.69 3.69 3.58 3.39 3.16 2.92 2.74 2.59 2.37 2.50 2.76 2.84 2.74 2.70 2.73 2.99 3.12 3.10 3.10
0.05 0.10 0.18 0.27 0.48 0.86 0.71 0.83 1.38 1.75 1.61 1.40 1.33 1.12 1.23 1.42 1.50 1.55 1.64 1.76 1.89 2.19 2.55 2.84 3.08 3.30 3.37 3.15 3.05 3.06 3.11 3.18 3.12 2.95 2.76 2.52 2.42 2.30 2.11 2.18 2.46 2.55 2.57 2.56 2.55 2.62 2.69 2.74 2.78
0.09 0.20 0.65 1.08 1.41 1.31 0.81 0.92 1.51 1.39 1.06 0.98 1.07 1.05 1.04 1.08 1.23 1.34 1.53 1.73 1.91 2.02 2.12 2.56 2.99 3.16 3.07 2.82 2.63 2.55 2.68 2.79 2.71 2.59 2.51 2.39 2.21 2.09 2.03 2.04 2.19 2.25 2.28 2.28 2.37 2.44 2.46 2.61 2.72
0.14 0.26 0.75 1.05 1.15 1.13 0.91 1.31 1.80 1.39 0.95 0.80 0.91 0.90 0.79 0.74 0.72 0.80 0.98 1.10 1.25 1.30 1.33 1.50 1.78 2.02 2.11 2.01 2.02 2.07 2.12 2.19 2.19 2.37 2.21 2.18 2.07 1.94 1.95 1.88 1.86 1.93 1.97 1.97 2.30 2.34 2.46 2.63 2.71
0.25 0.29 0.32 0.55 0.76 1.16 1.17 1.37 1.46 1.20 0.94 0.90 0.98 0.89 0.70 0.66 0.62 0.68 0.78 0.84 0.94 0.97 1.01 1.16 1.41 1.65 1.69 1.70 1.75 1.80 1.82 1.85 1.88 1.94 1.89 1.84 1.88 1.81 1.79 1.76 1.87 1.85 1.91 2.05 2.25 2.27 2.35 2.61 2.65
0.21 0.29 0.45 0.72 0.97 1.13 1.22 1.58 1.74 1.56 1.28 1.12 1.07 0.94 0.72 0.60 0.57 0.64 0.74 0.79 0.89 1.01 1.16 1.28 1.39 1.50 1.50 1.50 1.52 1.47 1.57 1.58 1.62 1.62 1.55 1.57 1.65 1.65 1.64 1.66 1.75 1.80 1.81 1.92 2.15 2.18 2.26 2.40 2.44
0.24 0.32 0.48 0.67 0.73 0.96 1.34 1.50 1.26 1.23 1.21 1.28 1.22 1.02 0.78 0.60 0.54 0.59 0.71 0.78 0.85 0.98 1.12 1.27 1.36 1.45 1.43 1.38 1.46 1.51 1.52 1.55 1.53 1.49 1.41 1.48 1.55 1.58 1.59 1.65 1.74 1.79 1.81 1.93 2.07 2.06 2.19 2.20 2.20
0.23 0.33 0.49 0.75 0.80 0.84 1.01 1.17 0.79 0.82 0.94 1.03 1.03 0.83 0.65 0.57 0.55 0.62 0.74 0.79 0.93 1.00 1.07 1.10 1.19 1.33 1.34 1.36 1.48 1.68 1.64 1.64 1.60 1.46 1.40 1.45 1.46 1.50 1.53 1.63 1.71 1.69 1.78 1.96 2.05 2.04 2.20 2.26 2.23